FLOCK 4BE-6

Last updated on Mon Sep 16 2024 00:02:03 GMT+0000 (Coordinated Universal Time)

1 60516U 24149BA 24258.88632714 .00017029 00000+0 80940-3 0 9990 2 60516 97.4432 334.0345 0005683 62.8297 297.3517 15.19260039 4416
UTC large
Height (km)
Speed (km/s)
/
Latitude / Longitude
Inclination (degrees)
Orbital Period (minutes)
Azimuth
Elevation
Range (km)
Doppler Factor

Next 0 passes for location: London (51.5072 / 0.1276)

Sorry there are no passes over London.